Victoria, British Columbia

4:58 AM PDT on August 30, 2016 (GMT -0700)
Victoria International

Weather History for CYYJ - November, 2011

Change the Weather History Date:

Wednesday, November 23, 2011

  Actual Average Record
Temperature  
Mean Temperature 40 °F -  
Max Temperature 48 °F 45 °F 54 °F (2014)
Min Temperature 33 °F 34 °F 15 °F (2010)
Degree Days  
Heating Degree Days 24    
Moisture  
Dew Point 36 °F    
Average Humidity 87    
Maximum Humidity 93    
Minimum Humidity 71    
Precipitation  
Precipitation 0.79 in 0.20 in - ()
Sea Level Pressure  
Sea Level Pressure 29.60 in    
Wind  
Wind Speed 8 mph ()    
Max Wind Speed 20 mph    
Max Gust Speed -    
Visibility 8.5 miles    
Events Rain    
Averages and records for this station are not official NWS values.
T = Trace of Precipitation, MM = Missing Value Source: Averaged Metar Reports

Daily Weather History Graph

Daily Weather History Graph

Search for Another Location

Airport or City:

Trip Planner

Search our weather history database for the weather conditions in past years. The results will help you decide how hot, cold, wet, or windy it might be!

Date:

Astronomy

Nov. 23, 2011 Rise Set
Actual Time 7:33 AM PST 4:25 PM PST
Civil Twilight 6:58 AM PST 5:01 PM PST
Nautical Twilight 6:19 AM PST 5:40 PM PST
Astronomical Twilight 5:42 AM PST 6:17 PM PST
Moon 5:42 AM PST (11/23) 3:13 PM PST (11/23)
Length of Visible Light 10h 02m
Length of Day
8h 52m
Waning Crescent, 3% of the Moon is Illuminated
Nov 23
Waning Crescent
Nov 24
New
Dec 2
First Quarter
Dec 10
Full
Dec 17
Last Quarter

Hourly Weather History & Observations

Time (PST) Temp. Windchill Dew Point Humidity Pressure Visibility Wind Dir Wind Speed Gust Speed Precip Events Conditions
12:00 AM 37.4 °F 28.5 °F 35.6 °F 93% 29.38 in 5.0 mi West 15.0 mph - N/A Rain Rain
1:00 AM 37.4 °F 27.8 °F 35.6 °F 93% 29.36 in 5.0 mi WNW 17.3 mph - N/A Rain Light Rain
1:21 AM 37.4 °F 27.2 °F - N/A% - 5.0 mi WNW 19.6 mph - N/A Rain Rain
2:00 AM 39.2 °F 30.8 °F 37.4 °F 93% 29.37 in 7.0 mi West 15.0 mph - N/A Rain Light Rain
3:00 AM 39.2 °F 33.6 °F 37.4 °F 93% 29.38 in 6.0 mi West 8.1 mph - N/A Rain Rain
4:00 AM 39 °F - 37 °F 88% 29.38 in 6 mi WNW 8.1 mph - - Rain Light Rain
4:00 AM 39.2 °F 32.5 °F 37.4 °F 93% 29.38 in 6.0 mi WNW 10.4 mph - N/A Rain Light Rain
6:00 AM 39.2 °F 32.0 °F 37.4 °F 93% 29.43 in 10.0 mi NW 11.5 mph - N/A Rain Light Rain
6:42 AM 39.2 °F 35.9 °F - N/A% - 15.0 mi West 4.6 mph - N/A   Overcast
7:00 AM 39.2 °F 33.0 °F 35.6 °F 87% 29.47 in 20.0 mi WNW 9.2 mph - N/A   Overcast
8:00 AM 39.2 °F - 37.4 °F 93% 29.51 in 30.0 mi Calm Calm - N/A   Mostly Cloudy
9:00 AM 39.2 °F - 37.4 °F 93% 29.55 in 30.0 mi SSW 2.3 mph - N/A   Mostly Cloudy
10:00 AM 40 °F - 38 °F 88% 29.58 in 28 mi SW 2.3 mph - -   Partly Cloudy
10:00 AM 39.2 °F - 37.4 °F 93% 29.58 in 30.0 mi WSW 2.3 mph - N/A   Mostly Cloudy
11:00 AM 41.0 °F 38.0 °F 39.2 °F 93% 29.61 in 30.0 mi West 4.6 mph - N/A   Mostly Cloudy
12:00 PM 42.8 °F 39.3 °F 39.2 °F 87% 29.63 in 30.0 mi WNW 5.8 mph - N/A   Mostly Cloudy
1:00 PM 44.6 °F 41.4 °F 39.2 °F 81% 29.65 in 30.0 mi West 5.8 mph - N/A   Mostly Cloudy
2:00 PM 46.4 °F 42.4 °F 37.4 °F 71% 29.66 in 30.0 mi West 8.1 mph - N/A   Partly Cloudy
4:00 PM 41 °F - 36 °F 77% 29.71 in 28 mi SSW 3.5 mph - -   Scattered Clouds
4:00 PM 41.0 °F - 35.6 °F 81% 29.71 in 30.0 mi SSW 2.3 mph - N/A   Partly Cloudy
5:00 PM 37.4 °F 32.8 °F 33.8 °F 87% 29.73 in 30.0 mi WSW 5.8 mph - N/A   Partly Cloudy
5:51 PM 35.6 °F 31.7 °F - N/A% - 30.0 mi SW 4.6 mph - N/A   Partly Cloudy
6:00 PM 35.6 °F 31.7 °F 32.0 °F 87% 29.75 in 30.0 mi West 4.6 mph - N/A   Partly Cloudy
7:00 PM 37.4 °F - 33.8 °F 87% 29.77 in 30.0 mi North 2.3 mph - N/A   Partly Cloudy
7:11 PM 33.8 °F 27.7 °F - N/A% - 30.0 mi West 6.9 mph - N/A   Partly Cloudy
8:00 PM 35.6 °F 29.9 °F 32.0 °F 87% 29.78 in 30.0 mi South 6.9 mph - N/A   Scattered Clouds
9:00 PM 33.8 °F 29.6 °F 30.2 °F 87% 29.80 in 30.0 mi WSW 4.6 mph - N/A   Partly Cloudy
10:00 PM 35 °F - 31 °F 79% 29.81 in 28 mi Calm Calm - -   Scattered Clouds
10:00 PM 35.6 °F 32.8 °F 30.2 °F 81% 29.81 in 30.0 mi NNE 3.5 mph - N/A   Partly Cloudy
11:00 PM 33.8 °F - 30.2 °F 87% 29.81 in 30.0 mi NW 2.3 mph - N/A   Partly Cloudy